Flight Track Log - Related Links

Times and Time Zones

All times are in EDT time to prevent confusion due to time zone crossing. See the SKW5564 flight status page for this flight to view local times or setup timezone preferences in your user account.

Time Position Orientation Groundspeed Altitude Reporting Facility
EDT Latitude Longitude Course Direction KTS MPH feet Rate Location/Type
Mon 18:49:45 33.6519 -84.3756 282° West 447 514 2,600  Level Atlanta Center
Mon 18:50:45 33.6728 -84.3058 70° East 291 335 4,200 2,050 Climbing Atlanta Center
Mon 18:51:00 33.8001 -84.7988 270° West  Level FlightAware Approximate
Mon 18:51:45 33.7378 -84.2811 18° North 225 259 6,700  Level Atlanta Center
Mon 18:52:00 33.7927 -84.9464 259° West  Level FlightAware Approximate
Mon 18:52:45 33.8128 -84.3239 335° Northwest 305 351 9,200  Level Atlanta Center
Mon 18:53:00 33.7698 -85.0922 259° West  Level FlightAware Approximate
Mon 18:53:45 33.8103 -84.4164 268° West 328 377 11,400  Level Atlanta Center
Mon 18:54:00 33.7538 -85.2377 282° West  Level FlightAware Approximate
Mon 18:54:45 33.8100 -84.5189 270° West 333 383 13,500  Level Atlanta Center
Mon 18:55:00 33.7802 -85.3826 282° West  Level FlightAware Approximate
Mon 18:55:45 33.8117 -84.6389 271° West 333 383 15,900  Level Atlanta Center
Mon 18:56:45 33.8089 -84.7539 268° West 333 383 17,800 1,700 Climbing Atlanta Center
Mon 18:57:45 33.8081 -84.8739 270° West 349 402 19,300 1,700 Climbing Atlanta Center
Mon 18:58:45 33.7967 -84.9986 264° West 378 435 21,200 1,750 Climbing Atlanta Center
Mon 18:59:45 33.7811 -85.1211 261° West 378 435 22,800 1,500 Climbing Atlanta Center
Mon 19:00:45 33.7717 -85.2433 265° West 373 429 24,200 1,450 Climbing Atlanta Center
Mon 19:01:45 33.7933 -85.3686 282° West 373 429 25,700 1,300 Climbing Atlanta Center
Mon 19:02:45 33.8147 -85.4989 281° West 385 443 26,800 1,250 Climbing Atlanta Center
Mon 19:03:45 33.8383 -85.6269 283° West 396 456 28,200 1,300 Climbing Atlanta Center
Mon 19:04:45 33.8761 -85.7553 290° West 396 456 29,400 1,200 Climbing Atlanta Center
Mon 19:05:45 33.9100 -85.8761 289° West 395 455 30,600 1,150 Climbing Atlanta Center
Mon 19:06:45 33.9539 -86.0022 293° West 401 461 31,700 850 Climbing Atlanta Center
Mon 19:07:45 33.9936 -86.1333 290° West 408 470 32,300 950 Climbing Atlanta Center
Mon 19:08:45 34.0286 -86.2672 288° West 415 478 33,600 1,000 Climbing Atlanta Center
Mon 19:09:45 34.0658 -86.4008 289° West 420 483 34,300 600 Climbing Atlanta Center
Mon 19:10:45 34.1028 -86.5375 288° West 425 489 34,800 350 Climbing Atlanta Center
Mon 19:11:45 34.1439 -86.6767 290° West 430 495 35,000 104 Climbing Atlanta Center
Mon 19:12:40 34.1803 -86.8019 289° West 430 495 35,000  Level Memphis Center
Mon 19:13:40 34.2128 -86.9211 288° West 438 504 35,000 400 Level Memphis Center
Mon 19:14:40 34.2500 -87.0606 288° West 426 490 35,800 900 Climbing Memphis Center
Mon 19:15:40 34.2889 -87.1922 290° West 426 490 36,800 950 Climbing Memphis Center
Mon 19:16:40 34.3303 -87.3439 288° West 436 502 37,700 600 Climbing Memphis Center
Mon 19:17:40 34.3667 -87.4761 288° West 430 495 38,000 150 Climbing Memphis Center
Mon 19:18:40 34.3992 -87.6161 286° West 425 489 38,000  Level Memphis Center
Mon 19:19:40 34.4269 -87.7511 284° West 425 489 38,000  Level Memphis Center
Mon 19:20:40 34.4403 -87.8942 276° West 425 489 38,000  Level Memphis Center
Mon 19:21:40 34.4556 -88.0322 278° West 425 489 38,000  Level Memphis Center
Mon 19:22:40 34.4686 -88.1731 276° West 425 489 38,000  Level Memphis Center
Mon 19:23:40 34.4836 -88.3186 277° West 431 496 38,000  Level Memphis Center
Mon 19:24:40 34.4983 -88.4594 277° West 431 496 38,000  Level Memphis Center
Mon 19:25:40 34.5128 -88.6003 277° West 426 490 38,000  Level Memphis Center
Mon 19:26:40 34.5272 -88.7436 277° West 426 490 38,000  Level Memphis Center
Mon 19:27:40 34.5372 -88.8669 276° West 421 484 38,000  Level Memphis Center
Mon 19:28:40 34.5639 -89.0053 283° West 426 490 38,000  Level Memphis Center
Mon 19:29:40 34.6236 -89.1431 298° West 426 490 38,000  Level Memphis Center
Mon 19:30:40 34.6833 -89.2711 300° West 426 490 38,000  Level Memphis Center
Mon 19:31:40 34.7428 -89.3967 300° West 432 497 38,000  Level Memphis Center
Mon 19:32:40 34.8022 -89.5225 300° West 438 504 38,000  Level Memphis Center
Mon 19:33:40 34.8614 -89.6511 299° West 438 504 38,000  Level Memphis Center
Mon 19:34:40 34.9206 -89.7797 299° West 438 504 38,000  Level Memphis Center
Mon 19:35:40 34.9836 -89.9033 302° West 456 525 38,000  Level Memphis Center
Mon 19:36:40 35.0319 -90.0325 295° West 441 507 38,000  Level Memphis Center
Mon 19:37:40 35.0781 -90.1794 291° West 429 494 38,000  Level Memphis Center
Mon 19:38:40 35.1222 -90.3164 292° West 429 494 38,000  Level Memphis Center
Mon 19:39:40 35.1658 -90.4536 291° West 429 494 38,000  Level Memphis Center
Mon 19:40:40 35.2075 -90.5908 290° West 434 499 38,000  Level Memphis Center
Mon 19:41:40 35.2508 -90.7258 291° West 429 494 38,000  Level Memphis Center
Mon 19:42:40 35.2942 -90.8633 291° West 434 499 38,000  Level Memphis Center
Mon 19:43:40 35.3375 -91.0036 291° West 434 499 38,000  Level Memphis Center
Mon 19:44:40 35.3722 -91.1236 290° West 428 493 38,000  Level Memphis Center
Mon 19:45:40 35.4211 -91.2819 291° West 441 507 38,000  Level Memphis Center
Mon 19:46:40 35.4619 -91.4072 292° West 446 513 38,000  Level Memphis Center
Mon 19:47:40 35.5025 -91.5431 290° West 446 513 38,000  Level Memphis Center
Mon 19:48:40 35.5447 -91.6839 290° West 446 513 38,000  Level Memphis Center
Mon 19:49:40 35.5869 -91.8275 290° West 451 519 38,000  Level Memphis Center
Mon 19:50:40 35.6311 -91.9739 290° West 451 519 38,000  Level Memphis Center
Mon 19:51:40 35.6750 -92.1178 291° West 451 519 38,000  Level Memphis Center
Mon 19:52:40 35.7167 -92.2619 290° West 451 519 38,000  Level Memphis Center
Mon 19:53:40 35.7603 -92.4114 290° West 451 519 38,000  Level Memphis Center
Mon 19:54:40 35.8036 -92.5556 290° West 451 519 38,000  Level Memphis Center
Mon 19:55:40 35.8506 -92.7183 290° West 451 519 38,000  Level Memphis Center
Mon 19:56:40 35.8936 -92.8631 290° West 451 519 38,000  Level Memphis Center
Mon 19:57:40 35.9344 -93.0103 289° West 451 519 38,000  Level Memphis Center
Mon 19:58:40 35.9769 -93.1606 289° West 456 525 38,000  Level Memphis Center
Mon 19:59:40 36.0194 -93.3056 290° West 456 525 38,000  Level Memphis Center
Mon 20:00:40 36.0597 -93.4508 289° West 456 525 38,000  Level Memphis Center
Mon 20:01:40 36.1019 -93.6014 289° West 456 525 38,000  Level Memphis Center
Mon 20:02:40 36.1439 -93.7469 290° West 456 525 38,000  Level Memphis Center
Mon 20:03:40 36.1794 -93.8978 286° West 451 519 38,000  Level Memphis Center
Mon 20:05:46 36.2603 -94.1975 289° West 453 521 38,000  Level Kansas City Center
Mon 20:06:48 36.2803 -94.3500 279° West 449 517 38,000  Level Kansas City Center
Mon 20:07:50 36.3028 -94.5017 280° West 447 514 38,000  Level Kansas City Center
Mon 20:08:52 36.3242 -94.6561 280° West 452 520 38,000  Level Kansas City Center
Mon 20:09:54 36.3494 -94.8392 280° West 450 518 38,000  Level Kansas City Center
Mon 20:10:56 36.3706 -94.9908 280° West 450 518 38,000  Level Kansas City Center
Mon 20:11:58 36.3908 -95.1372 280° West 447 514 38,000  Level Kansas City Center
Mon 20:13:00 36.4111 -95.2883 280° West 444 511 38,000  Level Kansas City Center
Mon 20:14:02 36.4311 -95.4422 279° West 448 516 38,000  Level Kansas City Center
Mon 20:15:04 36.4525 -95.5961 280° West 451 519 38,000  Level Kansas City Center
Mon 20:16:06 36.4781 -95.7783 280° West 459 528 38,000  Level Kansas City Center
Mon 20:17:08 36.4981 -95.9317 279° West 453 521 38,000  Level Kansas City Center
Mon 20:18:11 36.5186 -96.0858 279° West 453 521 38,000  Level Kansas City Center
Mon 20:19:13 36.5381 -96.2394 279° West 451 519 38,000  Level Kansas City Center
Mon 20:20:15 36.5617 -96.4250 279° West 452 520 38,000  Level Kansas City Center
Mon 20:21:17 36.5819 -96.5806 279° West 453 521 38,000  Level Kansas City Center
Mon 20:22:19 36.6006 -96.7364 279° West 456 525 38,000  Level Kansas City Center
Mon 20:23:20 36.6200 -96.8925 279° West 456 525 38,000  Level Kansas City Center
Mon 20:24:22 36.6383 -97.0481 278° West 455 524 38,000  Level Kansas City Center
Mon 20:25:24 36.6572 -97.2039 279° West 455 524 38,000  Level Kansas City Center
Mon 20:26:26 36.6753 -97.3583 278° West 454 522 38,000  Level Kansas City Center
Mon 20:27:28 36.6956 -97.5306 278° West 454 522 38,000  Level Kansas City Center
Mon 20:28:30 36.7133 -97.6875 278° West 455 524 38,000  Level Kansas City Center
Mon 20:29:32 36.7314 -97.8478 278° West 452 520 38,000  Level Kansas City Center
Mon 20:30:34 36.7481 -98.0033 278° West 452 520 38,000  Level Kansas City Center
Mon 20:31:36 36.7658 -98.1578 278° West 452 520 38,000  Level Kansas City Center
Mon 20:32:37 36.7861 -98.3417 278° West 449 517 38,000  Level Kansas City Center
Mon 20:33:39 36.8028 -98.4953 278° West 448 516 38,000  Level Kansas City Center
Mon 20:34:41 36.8194 -98.6469 278° West 445 512 38,000  Level Kansas City Center
Mon 20:35:43 36.8353 -98.7972 278° West 441 507 38,000  Level Kansas City Center
Mon 20:36:45 36.8528 -98.9492 278° West 442 509 38,000  Level Kansas City Center
Mon 20:37:46 36.8678 -99.1003 277° West 442 509 38,000  Level Kansas City Center
Mon 20:38:48 36.8825 -99.2508 277° West 440 506 38,000  Level Kansas City Center
Mon 20:39:50 36.9003 -99.4300 277° West 438 504 38,000  Level Kansas City Center
Mon 20:40:52 36.9156 -99.5806 277° West 437 503 38,000  Level Kansas City Center
Mon 20:41:54 36.9300 -99.7303 277° West 436 502 38,000  Level Kansas City Center
Mon 20:42:55 36.9450 -99.8803 277° West 436 502 38,000  Level Kansas City Center
Mon 20:43:57 36.9597 -100.0336 277° West 440 506 38,000  Level Kansas City Center
Mon 20:44:59 36.9761 -100.2108 277° West 444 511 38,000  Level Kansas City Center
Mon 20:46:35 36.9983 -100.4567 277° West 444 511 38,000  Level Denver Center
Mon 20:47:37 37.0114 -100.6033 276° West 443 510 38,000  Level Denver Center
Mon 20:48:39 37.0261 -100.7731 276° West 440 506 38,000  Level Denver Center
Mon 20:49:41 37.0422 -100.9172 278° West 436 502 38,000  Level Denver Center
Mon 20:50:43 37.0947 -101.0453 297° West 433 498 38,000  Level Denver Center
Mon 20:51:45 37.1844 -101.1725 312° West 433 498 38,000  Level Denver Center
Mon 20:52:47 37.2861 -101.2383 333° Northwest 430 495 38,000  Level Denver Center
Mon 20:53:49 37.4094 -101.3072 336° Northwest 431 496 38,000  Level Denver Center
Mon 20:54:51 37.5128 -101.3697 334° Northwest 429 494 38,000  Level Denver Center
Mon 20:55:53 37.6439 -101.3994 350° North 427 491 38,000  Level Denver Center
Mon 20:56:55 37.7597 -101.4081 357° North 431 496 38,000  Level Denver Center
Mon 20:57:58 37.8761 -101.4181 356° North 435 501 38,000  Level Denver Center
Mon 20:59:00 38.0119 -101.4289 356° North 436 502 38,000  Level Denver Center
Mon 21:00:02 38.1292 -101.4503 352° North 444 511 38,000  Level Denver Center
Mon 21:01:04 38.2417 -101.5486 326° Northwest 443 510 38,000  Level Denver Center
Mon 21:02:06 38.3025 -101.6792 301° West 449 517 38,000 48 Level Denver Center
Mon 21:03:08 38.3347 -101.8503 284° West 448 516 38,100 -387 Climbing Denver Center
Mon 21:04:10 38.3589 -101.9953 282° West 441 507 37,200 -968 Descending Denver Center
Mon 21:05:12 38.3853 -102.1581 282° West 423 487 36,100 -774 Descending Denver Center
Mon 21:06:14 38.4092 -102.2953 283° West 416 479 35,600 -823 Descending Denver Center
Mon 21:07:16 38.4447 -102.4486 287° West 408 470 34,400 -1,548 Descending Denver Center
Mon 21:08:18 38.4864 -102.5789 292° West 415 478 32,400 -2,226 Descending Denver Center
Mon 21:09:20 38.5364 -102.7322 293° West 419 482 29,800 -2,129 Descending Denver Center
Mon 21:10:22 38.5808 -102.8672 293° West 406 467 28,000 -871 Descending Denver Center
Mon 21:11:24 38.6169 -102.9808 292° West 345 397 28,000 -242 Level Denver Center
Mon 21:12:26 38.6506 -103.0906 291° West 333 383 27,500 -484 Descending Denver Center
Mon 21:13:28 38.6861 -103.2044 292° West 344 396 27,000 -242 Descending Denver Center
Mon 21:14:30 38.7219 -103.3153 293° West 340 391 27,000  Level Denver Center
Mon 21:15:32 38.7561 -103.4236 292° West 331 381 27,000 -435 Level Denver Center
Mon 21:16:34 38.7961 -103.5544 291° West 335 386 26,100 -581 Descending Denver Center
Mon 21:17:36 38.8350 -103.6553 296° West 336 387 25,800 -768 Descending Denver Center
Mon 21:18:39 38.9300 -103.6247 14° North 372 428 24,500 -1,392 Descending Denver Center
Mon 21:19:41 38.9125 -103.5064 101° East 371 427 22,900 -1,694 Descending Denver Center
Mon 21:20:43 38.8133 -103.5344 192° South 361 415 21,000 -1,707 Descending Denver Center
Mon 21:21:44 38.8186 -103.6650 273° West 392 451 19,400 -1,610 Descending Denver Center
Mon 21:22:46 38.8408 -103.8136 281° West 383 441 17,700 -1,597 Descending Denver Center
Mon 21:23:48 38.8583 -103.9464 280° West 380 437 16,100 -823 Descending Denver Center
Mon 21:24:50 38.8753 -104.0806 279° West 380 437 16,000 -491 Descending Denver Center
Mon 21:25:38 38.8908 -104.1869 281° West 381 438 15,200 -1,065 Descending Denver Center
Mon 21:25:52 38.8936 -104.2186 276° West 380 437 14,900 -1,026 Descending Denver Center
Mon 21:26:54 38.9078 -104.3394 279° West 369 425 13,900 -1,016 Descending Denver Center
Mon 21:27:56 38.9233 -104.4589 280° West 323 372 12,800 -919 Descending Denver Center
Mon 21:28:58 38.9569 -104.5497 295° West 335 386 12,000 -390 Descending Denver Center
Mon 21:29:59 39.0636 -104.5694 352° North 325 374 12,000  Level Denver Center
Mon 21:31:01 39.1492 -104.5925 348° North 320 368 12,000 -339 Level Denver Center
Mon 21:32:03 39.2397 -104.6386 338° Northwest 323 372 11,300 -968 Descending Denver Center
Mon 21:33:05 39.3264 -104.6483 355° North 310 357 10,000 -1,113 Descending Denver Center
Mon 21:34:07 39.4050 -104.6475 360° North 286 329 9,000 -488 Descending Denver Center
Mon 21:35:08 39.4867 -104.6458 North 275 316 9,000  Level Denver Center
Mon 21:36:10 39.5631 -104.6447 North 275 316 9,000  Level Denver Center
Mon 21:37:12 39.6369 -104.6444 360° North 268 308 9,000 -581 Level Denver Center
Mon 21:38:14 39.7019 -104.6431 North 222 255 7,800 -976 Descending Denver Center
Mon 21:39:15 39.7486 -104.6425 North 166 191 7,000 -780 Descending Denver Center
Mon 21:40:17 39.7897 -104.6425 360° North 138 159 6,200 -677 Descending Denver Center
Mon 21:41:19 39.8231 -104.6411 North 122 140 5,600 -581 Descending Denver Center

Login

Don't have an account? Register now (free) for customized features, flight alerts, and more!